Time,TemperatureF,DewpointF,PressureIn,WindDirection,WindDirectionDegrees,WindSpeedMPH,WindSpeedGustMPH,Humidity,HourlyPrecipIn,Conditions,Clouds,dailyrainin,SoftwareType,DateUTC
2013-08-19 00:01:00,71.1,56.8,30.28,WSW,245,1.0,8.0,61,0.00,,,0.00,meteohub,2013-08-19 07:01:00,
2013-08-19 00:06:00,70.9,56.8,30.28,WNW,288,2.0,8.0,61,0.00,,,0.00,meteohub,2013-08-19 07:06:00,
2013-08-19 00:12:00,70.9,57.2,30.28,SSE,167,2.0,8.0,62,0.00,,,0.00,meteohub,2013-08-19 07:12:00,
2013-08-19 00:17:00,70.5,56.8,30.28,NW,314,6.0,6.0,62,0.00,,,0.00,meteohub,2013-08-19 07:17:00,
2013-08-19 00:22:00,70.5,56.8,30.28,SSE,167,2.0,7.0,62,0.00,,,0.00,meteohub,2013-08-19 07:22:00,
2013-08-19 00:27:00,70.2,57.0,30.28,SW,230,1.0,7.0,63,0.00,,,0.00,meteohub,2013-08-19 07:27:00,
2013-08-19 00:32:00,70.0,56.8,30.28,WSW,238,1.0,8.0,63,0.00,,,0.00,meteohub,2013-08-19 07:32:00,
2013-08-19 00:37:00,69.8,57.0,30.28,WSW,250,1.0,8.0,64,0.00,,,0.00,meteohub,2013-08-19 07:37:00,
2013-08-19 00:42:00,69.4,57.2,30.28,SW,222,4.0,8.0,65,0.00,,,0.00,meteohub,2013-08-19 07:42:00,
2013-08-19 00:47:00,69.4,57.2,30.28,SSW,196,4.0,6.0,65,0.00,,,0.00,meteohub,2013-08-19 07:47:00,
2013-08-19 00:52:00,69.3,57.0,30.28,SW,214,3.0,10.0,65,0.00,,,0.00,meteohub,2013-08-19 07:52:00,
2013-08-19 00:57:00,69.3,57.4,30.28,West,273,4.0,10.0,66,0.00,,,0.00,meteohub,2013-08-19 07:57:00,
2013-08-19 01:02:00,69.3,57.4,30.28,SW,214,2.0,10.0,66,0.00,,,0.00,meteohub,2013-08-19 08:02:00,
2013-08-19 01:07:00,69.1,57.2,30.28,WSW,248,1.0,8.0,66,0.00,,,0.00,meteohub,2013-08-19 08:07:00,
2013-08-19 01:12:00,69.1,57.2,30.28,SW,236,0.0,8.0,66,0.00,,,0.00,meteohub,2013-08-19 08:12:00,
2013-08-19 01:17:00,68.5,56.7,30.28,ENE,72,1.0,6.0,66,0.00,,,0.00,meteohub,2013-08-19 08:17:00,
2013-08-19 01:23:00,68.5,57.2,30.28,West,277,0.0,4.0,67,0.00,,,0.00,meteohub,2013-08-19 08:23:00,
2013-08-19 01:28:00,68.0,57.4,30.28,NE,51,2.0,3.0,69,0.00,,,0.00,meteohub,2013-08-19 08:28:00,
2013-08-19 01:33:00,67.8,57.2,30.28,East,98,1.0,5.0,69,0.00,,,0.00,meteohub,2013-08-19 08:33:00,
2013-08-19 01:38:00,67.8,57.2,30.28,NW,311,3.0,5.0,69,0.00,,,0.00,meteohub,2013-08-19 08:38:00,
2013-08-19 01:43:00,67.8,56.8,30.28,SSW,205,4.0,5.0,68,0.00,,,0.00,meteohub,2013-08-19 08:43:00,
2013-08-19 01:49:00,68.0,57.0,30.28,SW,219,0.0,8.0,68,0.00,,,0.00,meteohub,2013-08-19 08:49:00,
2013-08-19 01:54:00,68.0,57.0,30.28,SSW,211,5.0,8.0,68,0.00,,,0.00,meteohub,2013-08-19 08:54:00,
2013-08-19 01:59:00,68.0,57.0,30.28,SSE,152,4.0,8.0,68,0.00,,,0.00,meteohub,2013-08-19 08:59:00,
2013-08-19 02:04:00,67.8,57.2,30.28,SW,227,5.0,11.0,69,0.00,,,0.00,meteohub,2013-08-19 09:04:00,
2013-08-19 02:09:00,67.6,57.6,30.28,SSW,211,7.0,11.0,70,0.00,,,0.00,meteohub,2013-08-19 09:09:00,
2013-08-19 02:15:00,67.5,57.7,30.28,WSW,248,6.0,11.0,71,0.00,,,0.00,meteohub,2013-08-19 09:15:00,
2013-08-19 02:20:00,67.1,57.4,30.28,SW,217,6.0,9.0,71,0.00,,,0.00,meteohub,2013-08-19 09:20:00,
2013-08-19 02:25:00,67.1,57.4,30.28,West,267,5.0,10.0,71,0.00,,,0.00,meteohub,2013-08-19 09:25:00,
2013-08-19 02:30:00,67.1,57.0,30.28,SW,226,12.0,12.0,70,0.00,,,0.00,meteohub,2013-08-19 09:30:00,
2013-08-19 02:35:00,67.1,57.0,30.28,West,265,5.0,14.0,70,0.00,,,0.00,meteohub,2013-08-19 09:35:00,
2013-08-19 02:40:00,66.9,57.2,30.27,WSW,248,3.0,14.0,71,0.00,,,0.00,meteohub,2013-08-19 09:40:00,
2013-08-19 02:46:00,66.7,57.0,30.28,WSW,252,5.0,14.0,71,0.00,,,0.00,meteohub,2013-08-19 09:46:00,
2013-08-19 02:51:00,66.7,57.0,30.28,SW,230,13.0,14.0,71,0.00,,,0.00,meteohub,2013-08-19 09:51:00,
2013-08-19 02:56:00,66.6,57.2,30.28,SSW,199,7.0,13.0,72,0.00,,,0.00,meteohub,2013-08-19 09:56:00,
2013-08-19 03:01:00,66.6,57.2,30.28,SW,217,8.0,13.0,72,0.00,,,0.00,meteohub,2013-08-19 10:01:00,
2013-08-19 03:06:00,66.4,57.0,30.28,West,273,3.0,13.0,72,0.00,,,0.00,meteohub,2013-08-19 10:06:00,
2013-08-19 03:11:00,66.2,57.2,30.28,SSW,200,5.0,13.0,73,0.00,,,0.00,meteohub,2013-08-19 10:11:00,
2013-08-19 03:16:00,66.2,56.8,30.28,WSW,238,8.0,17.0,72,0.00,,,0.00,meteohub,2013-08-19 10:16:00,
2013-08-19 03:21:00,66.2,56.8,30.28,SSW,199,3.0,17.0,72,0.00,,,0.00,meteohub,2013-08-19 10:21:00,
2013-08-19 03:26:00,66.0,57.2,30.28,WNW,283,5.0,17.0,73,0.00,,,0.00,meteohub,2013-08-19 10:26:00,
2013-08-19 03:31:00,66.0,57.6,30.28,WSW,241,9.0,18.0,74,0.00,,,0.00,meteohub,2013-08-19 10:31:00,
2013-08-19 03:37:00,65.7,57.9,30.28,SW,217,3.0,18.0,76,0.00,,,0.00,meteohub,2013-08-19 10:37:00,
2013-08-19 03:42:00,65.5,57.7,30.28,SW,222,6.0,17.0,76,0.00,,,0.00,meteohub,2013-08-19 10:42:00,
2013-08-19 03:47:00,65.5,57.7,30.28,SSW,205,5.0,17.0,76,0.00,,,0.00,meteohub,2013-08-19 10:47:00,
2013-08-19 03:52:00,65.5,57.4,30.28,SW,217,9.0,17.0,75,0.00,,,0.00,meteohub,2013-08-19 10:52:00,
2013-08-19 03:57:00,65.5,57.0,30.28,SSW,206,4.0,13.0,74,0.00,,,0.00,meteohub,2013-08-19 10:57:00,
2013-08-19 04:02:00,65.7,57.2,30.28,West,260,4.0,13.0,74,0.00,,,0.00,meteohub,2013-08-19 11:02:00,
2013-08-19 04:07:00,65.7,57.2,30.28,West,264,6.0,16.0,74,0.00,,,0.00,meteohub,2013-08-19 11:07:00,
2013-08-19 04:12:00,65.5,57.4,30.28,SW,227,11.0,16.0,75,0.00,,,0.00,meteohub,2013-08-19 11:12:00,
2013-08-19 04:17:00,65.3,57.2,30.28,WSW,246,6.0,17.0,75,0.00,,,0.00,meteohub,2013-08-19 11:17:00,
2013-08-19 04:22:00,65.1,57.0,30.28,SW,232,8.0,17.0,75,0.00,,,0.00,meteohub,2013-08-19 11:22:00,
2013-08-19 04:27:00,65.1,57.4,30.28,WSW,242,9.0,19.0,76,0.00,,,0.00,meteohub,2013-08-19 11:27:00,
2013-08-19 04:32:00,64.9,57.2,30.28,SSW,199,5.0,19.0,76,0.00,,,0.00,meteohub,2013-08-19 11:32:00,
2013-08-19 04:37:00,64.9,57.2,30.28,WSW,242,10.0,16.0,76,0.00,,,0.00,meteohub,2013-08-19 11:37:00,
2013-08-19 04:43:00,64.9,57.2,30.28,SW,221,11.0,16.0,76,0.00,,,0.00,meteohub,2013-08-19 11:43:00,
2013-08-19 04:48:00,64.9,57.2,30.29,SSW,206,7.0,17.0,76,0.00,,,0.00,meteohub,2013-08-19 11:48:00,
2013-08-19 04:53:00,64.9,57.2,30.28,SW,231,5.0,17.0,76,0.00,,,0.00,meteohub,2013-08-19 11:53:00,
2013-08-19 04:58:00,64.8,57.4,30.29,SW,233,10.0,15.0,77,0.00,,,0.00,meteohub,2013-08-19 11:58:00,
2013-08-19 05:03:00,64.9,57.2,30.29,SW,216,5.0,15.0,76,0.00,,,0.00,meteohub,2013-08-19 12:03:00,
2013-08-19 05:08:00,64.9,57.2,30.29,WNW,285,6.0,13.0,76,0.00,,,0.00,meteohub,2013-08-19 12:08:00,
2013-08-19 05:13:00,64.8,57.4,30.29,WSW,240,7.0,13.0,77,0.00,,,0.00,meteohub,2013-08-19 12:13:00,
2013-08-19 05:19:00,64.8,57.4,30.29,SW,214,6.0,11.0,77,0.00,,,0.00,meteohub,2013-08-19 12:19:00,
2013-08-19 05:24:00,64.6,57.6,30.30,SW,226,9.0,13.0,78,0.00,,,0.00,meteohub,2013-08-19 12:24:00,
2013-08-19 05:29:00,64.4,57.4,30.29,SW,222,12.0,14.0,78,0.00,,,0.00,meteohub,2013-08-19 12:29:00,
2013-08-19 05:34:00,64.2,57.2,30.30,SW,217,5.0,14.0,78,0.00,,,0.00,meteohub,2013-08-19 12:34:00,
2013-08-19 05:39:00,64.2,57.6,30.30,SW,233,2.0,14.0,79,0.00,,,0.00,meteohub,2013-08-19 12:39:00,
2013-08-19 05:44:00,64.0,57.4,30.30,SW,227,6.0,14.0,79,0.00,,,0.00,meteohub,2013-08-19 12:44:00,
2013-08-19 05:49:00,64.0,57.4,30.30,WSW,250,3.0,13.0,79,0.00,,,0.00,meteohub,2013-08-19 12:49:00,
2013-08-19 05:55:00,63.9,57.6,30.30,WSW,246,5.0,14.0,80,0.00,,,0.00,meteohub,2013-08-19 12:55:00,
2013-08-19 06:00:00,63.7,57.4,30.30,SW,221,8.0,14.0,80,0.00,,,0.00,meteohub,2013-08-19 13:00:00,
2013-08-19 06:05:00,63.7,57.4,30.30,WSW,242,2.0,14.0,80,0.00,,,0.00,meteohub,2013-08-19 13:05:00,
2013-08-19 06:10:00,63.7,57.4,30.30,WSW,255,7.0,13.0,80,0.00,,,0.00,meteohub,2013-08-19 13:10:00,
2013-08-19 06:15:00,63.7,57.7,30.30,WSW,250,5.0,14.0,81,0.00,,,0.00,meteohub,2013-08-19 13:15:00,
2013-08-19 06:20:00,63.5,57.6,30.30,WSW,248,6.0,15.0,81,0.00,,,0.00,meteohub,2013-08-19 13:20:00,
2013-08-19 06:25:00,63.7,57.7,30.30,WSW,253,3.0,15.0,81,0.00,,,0.00,meteohub,2013-08-19 13:25:00,
2013-08-19 06:30:00,63.7,57.4,30.30,WSW,249,9.0,15.0,80,0.00,,,0.00,meteohub,2013-08-19 13:30:00,
2013-08-19 06:36:00,63.7,57.4,30.30,WNW,283,5.0,14.0,80,0.00,,,0.00,meteohub,2013-08-19 13:36:00,
2013-08-19 06:41:00,63.9,57.2,30.30,WSW,245,5.0,12.0,79,0.00,,,0.00,meteohub,2013-08-19 13:41:00,
2013-08-19 06:46:00,64.2,57.2,30.30,WNW,286,2.0,12.0,78,0.00,,,0.00,meteohub,2013-08-19 13:46:00,
2013-08-19 06:51:00,64.6,57.2,30.30,SW,234,9.0,12.0,77,0.00,,,0.00,meteohub,2013-08-19 13:51:00,
2013-08-19 06:56:00,64.8,57.0,30.30,SW,226,4.0,11.0,76,0.00,,,0.00,meteohub,2013-08-19 13:56:00,
2013-08-19 07:01:00,64.9,57.2,30.30,West,271,7.0,11.0,76,0.00,,,0.00,meteohub,2013-08-19 14:01:00,
2013-08-19 07:07:00,64.9,57.6,30.30,West,265,6.0,16.0,77,0.00,,,0.00,meteohub,2013-08-19 14:07:00,
2013-08-19 07:12:00,64.9,57.9,30.30,West,275,8.0,16.0,78,0.00,,,0.00,meteohub,2013-08-19 14:12:00,
2013-08-19 07:17:00,64.8,57.7,30.31,WNW,286,7.0,16.0,78,0.00,,,0.00,meteohub,2013-08-19 14:17:00,
2013-08-19 07:22:00,64.9,57.9,30.31,WSW,256,5.0,12.0,78,0.00,,,0.00,meteohub,2013-08-19 14:22:00,
2013-08-19 07:27:00,64.9,57.6,30.31,West,271,5.0,12.0,77,0.00,,,0.00,meteohub,2013-08-19 14:27:00,
2013-08-19 07:32:00,65.1,57.7,30.30,SSW,213,4.0,12.0,77,0.00,,,0.00,meteohub,2013-08-19 14:32:00,
2013-08-19 07:37:00,65.1,57.7,30.31,SW,219,3.0,12.0,77,0.00,,,0.00,meteohub,2013-08-19 14:37:00,
2013-08-19 07:43:00,65.1,57.7,30.31,WSW,249,7.0,13.0,77,0.00,,,0.00,meteohub,2013-08-19 14:43:00,
2013-08-19 07:48:00,65.3,57.9,30.31,WSW,239,8.0,13.0,77,0.00,,,0.00,meteohub,2013-08-19 14:48:00,
2013-08-19 07:53:00,65.3,58.3,30.31,WSW,246,4.0,14.0,78,0.00,,,0.00,meteohub,2013-08-19 14:53:00,
2013-08-19 07:58:00,65.5,58.1,30.31,WNW,283,4.0,14.0,77,0.00,,,0.00,meteohub,2013-08-19 14:58:00,
2013-08-19 08:03:00,65.8,58.1,30.31,WSW,248,4.0,14.0,76,0.00,,,0.00,meteohub,2013-08-19 15:03:00,
2013-08-19 08:09:00,66.0,58.3,30.31,West,260,4.0,12.0,76,0.00,,,0.00,meteohub,2013-08-19 15:09:00,
2013-08-19 08:14:00,66.4,57.9,30.30,SW,233,2.0,13.0,74,0.00,,,0.00,meteohub,2013-08-19 15:14:00,
2013-08-19 08:20:00,66.6,58.5,30.31,WSW,239,6.0,13.0,75,0.00,,,0.00,meteohub,2013-08-19 15:20:00,
2013-08-19 08:25:00,66.7,58.6,30.31,West,272,5.0,13.0,75,0.00,,,0.00,meteohub,2013-08-19 15:25:00,
2013-08-19 08:30:00,66.7,58.1,30.30,West,273,6.0,12.0,74,0.00,,,0.00,meteohub,2013-08-19 15:30:00,
2013-08-19 08:35:00,66.9,58.3,30.30,NNW,344,4.0,11.0,74,0.00,,,0.00,meteohub,2013-08-19 15:35:00,
2013-08-19 08:40:00,66.9,58.3,30.30,NW,304,1.0,14.0,74,0.00,,,0.00,meteohub,2013-08-19 15:40:00,
2013-08-19 08:45:00,67.5,58.5,30.30,West,279,3.0,14.0,73,0.00,,,0.00,meteohub,2013-08-19 15:45:00,
2013-08-19 08:51:00,67.5,58.8,30.30,West,279,7.0,14.0,74,0.00,,,0.00,meteohub,2013-08-19 15:51:00,
2013-08-19 08:56:00,67.8,58.5,30.30,WSW,248,3.0,10.0,72,0.00,,,0.00,meteohub,2013-08-19 15:56:00,
2013-08-19 09:01:00,68.4,59.0,30.30,NNW,344,6.0,9.0,72,0.00,,,0.00,meteohub,2013-08-19 16:01:00,
2013-08-19 09:06:00,68.7,58.5,30.31,West,281,4.0,9.0,70,0.00,,,0.00,meteohub,2013-08-19 16:06:00,
2013-08-19 09:11:00,69.4,58.8,30.31,West,269,8.0,10.0,69,0.00,,,0.00,meteohub,2013-08-19 16:11:00,
2013-08-19 09:17:00,69.8,58.8,30.30,WNW,290,5.0,11.0,68,0.00,,,0.00,meteohub,2013-08-19 16:17:00,
2013-08-19 09:22:00,70.3,58.1,30.30,WSW,237,2.0,11.0,65,0.00,,,0.00,meteohub,2013-08-19 16:22:00,
2013-08-19 09:27:00,70.5,58.1,30.30,NNW,344,7.0,13.0,65,0.00,,,0.00,meteohub,2013-08-19 16:27:00,
2013-08-19 09:32:00,71.1,58.3,30.30,WNW,298,6.0,13.0,64,0.00,,,0.00,meteohub,2013-08-19 16:32:00,
2013-08-19 09:38:00,71.2,57.9,30.30,WNW,292,6.0,13.0,63,0.00,,,0.00,meteohub,2013-08-19 16:38:00,
2013-08-19 09:43:00,71.2,57.9,30.30,WNW,300,5.0,10.0,63,0.00,,,0.00,meteohub,2013-08-19 16:43:00,
2013-08-19 09:48:00,71.6,58.3,30.30,West,261,8.0,13.0,63,0.00,,,0.00,meteohub,2013-08-19 16:48:00,
2013-08-19 09:53:00,71.8,58.1,30.30,West,279,3.0,13.0,62,0.00,,,0.00,meteohub,2013-08-19 16:53:00,
2013-08-19 09:58:00,72.1,57.6,30.30,WNW,295,5.0,14.0,60,0.00,,,0.00,meteohub,2013-08-19 16:58:00,
2013-08-19 10:04:00,72.7,57.6,30.30,WSW,238,6.0,14.0,59,0.00,,,0.00,meteohub,2013-08-19 17:04:00,
2013-08-19 10:09:00,72.9,57.2,30.30,SW,227,3.0,14.0,58,0.00,,,0.00,meteohub,2013-08-19 17:09:00,
2013-08-19 10:14:00,73.4,56.7,30.30,WNW,287,4.0,16.0,56,0.00,,,0.00,meteohub,2013-08-19 17:14:00,
2013-08-19 10:19:00,73.8,56.7,30.30,WSW,252,3.0,16.0,55,0.00,,,0.00,meteohub,2013-08-19 17:19:00,
2013-08-19 10:25:00,74.1,55.9,30.30,SW,225,7.0,15.0,53,0.00,,,0.00,meteohub,2013-08-19 17:25:00,
2013-08-19 10:31:00,74.5,56.3,30.30,WNW,301,4.0,15.0,53,0.00,,,0.00,meteohub,2013-08-19 17:31:00,
2013-08-19 10:36:00,74.7,55.9,30.30,SW,217,3.0,15.0,52,0.00,,,0.00,meteohub,2013-08-19 17:36:00,
2013-08-19 10:42:00,75.2,55.8,30.30,SSW,213,3.0,15.0,51,0.00,,,0.00,meteohub,2013-08-19 17:42:00,
2013-08-19 10:47:00,75.7,55.8,30.30,West,277,8.0,12.0,50,0.00,,,0.00,meteohub,2013-08-19 17:47:00,
2013-08-19 10:52:00,75.9,55.9,30.30,WSW,248,4.0,14.0,50,0.00,,,0.00,meteohub,2013-08-19 17:52:00,
2013-08-19 10:57:00,76.1,55.0,30.30,WSW,250,7.0,14.0,48,0.00,,,0.00,meteohub,2013-08-19 17:57:00,
2013-08-19 11:03:00,76.5,54.7,30.30,WNW,284,5.0,13.0,47,0.00,,,0.00,meteohub,2013-08-19 18:03:00,
2013-08-19 11:08:00,76.6,54.3,30.30,WNW,285,5.0,13.0,46,0.00,,,0.00,meteohub,2013-08-19 18:08:00,
2013-08-19 11:13:00,77.2,55.4,30.30,West,271,3.0,13.0,47,0.00,,,0.00,meteohub,2013-08-19 18:13:00,
2013-08-19 11:18:00,77.7,55.2,30.30,NW,325,2.0,13.0,46,0.00,,,0.00,meteohub,2013-08-19 18:18:00,
2013-08-19 11:23:00,78.1,53.8,30.30,SSW,206,4.0,14.0,43,0.00,,,0.00,meteohub,2013-08-19 18:23:00,
2013-08-19 11:28:00,78.6,54.9,30.30,West,279,3.0,14.0,44,0.00,,,0.00,meteohub,2013-08-19 18:28:00,
2013-08-19 11:34:00,78.6,54.9,30.30,SSW,202,14.0,16.0,44,0.00,,,0.00,meteohub,2013-08-19 18:34:00,
2013-08-19 11:39:00,78.8,55.0,30.30,WSW,253,5.0,18.0,44,0.00,,,0.00,meteohub,2013-08-19 18:39:00,
2013-08-19 11:44:00,79.0,55.2,30.30,West,268,3.0,18.0,44,0.00,,,0.00,meteohub,2013-08-19 18:44:00,
2013-08-19 11:49:00,79.2,54.7,30.30,WSW,242,9.0,18.0,43,0.00,,,0.00,meteohub,2013-08-19 18:49:00,
2013-08-19 11:54:00,79.3,54.9,30.30,SW,236,6.0,14.0,43,0.00,,,0.00,meteohub,2013-08-19 18:54:00,
2013-08-19 11:59:00,79.9,55.9,30.30,SW,234,3.0,14.0,44,0.00,,,0.00,meteohub,2013-08-19 18:59:00,
2013-08-19 12:05:00,80.2,55.8,30.30,SSW,211,7.0,13.0,43,0.00,,,0.00,meteohub,2013-08-19 19:05:00,
2013-08-19 12:10:00,80.2,55.8,30.30,SW,230,4.0,13.0,43,0.00,,,0.00,meteohub,2013-08-19 19:10:00,
2013-08-19 12:15:00,80.8,56.1,30.30,WNW,285,9.0,15.0,43,0.00,,,0.00,meteohub,2013-08-19 19:15:00,
2013-08-19 12:20:00,80.8,55.6,30.29,SW,230,8.0,15.0,42,0.00,,,0.00,meteohub,2013-08-19 19:20:00,
2013-08-19 12:25:00,80.8,55.6,30.29,WSW,248,6.0,15.0,42,0.00,,,0.00,meteohub,2013-08-19 19:25:00,
2013-08-19 12:30:00,81.0,56.3,30.29,WSW,250,8.0,15.0,43,0.00,,,0.00,meteohub,2013-08-19 19:30:00,
2013-08-19 12:36:00,81.1,56.5,30.29,WNW,283,5.0,14.0,43,0.00,,,0.00,meteohub,2013-08-19 19:36:00,
2013-08-19 12:41:00,81.5,56.1,30.28,SW,233,6.0,14.0,42,0.00,,,0.00,meteohub,2013-08-19 19:41:00,
2013-08-19 12:46:00,81.3,56.1,30.29,WSW,250,7.0,13.0,42,0.00,,,0.00,meteohub,2013-08-19 19:46:00,
2013-08-19 12:51:00,81.5,56.1,30.29,SW,217,15.0,16.0,42,0.00,,,0.00,meteohub,2013-08-19 19:51:00,
2013-08-19 12:56:00,81.3,56.1,30.28,SSW,207,12.0,16.0,42,0.00,,,0.00,meteohub,2013-08-19 19:56:00,
2013-08-19 13:02:00,81.7,56.3,30.28,WSW,248,8.0,16.0,42,0.00,,,0.00,meteohub,2013-08-19 20:02:00,
2013-08-19 13:07:00,81.7,56.3,30.28,West,280,9.0,16.0,42,0.00,,,0.00,meteohub,2013-08-19 20:07:00,
2013-08-19 13:12:00,81.7,56.3,30.28,South,173,11.0,16.0,42,0.00,,,0.00,meteohub,2013-08-19 20:12:00,
2013-08-19 13:17:00,81.7,56.3,30.27,SW,234,13.0,16.0,42,0.00,,,0.00,meteohub,2013-08-19 20:17:00,
2013-08-19 13:22:00,81.9,56.5,30.28,WSW,240,8.0,19.0,42,0.00,,,0.00,meteohub,2013-08-19 20:22:00,
2013-08-19 13:27:00,82.2,56.8,30.27,WSW,252,4.0,19.0,42,0.00,,,0.00,meteohub,2013-08-19 20:27:00,
2013-08-19 13:32:00,82.0,55.9,30.27,SW,220,8.0,19.0,41,0.00,,,0.00,meteohub,2013-08-19 20:32:00,
2013-08-19 13:37:00,82.2,56.8,30.27,SW,230,11.0,18.0,42,0.00,,,0.00,meteohub,2013-08-19 20:37:00,
2013-08-19 13:42:00,82.2,56.1,30.27,West,265,5.0,18.0,41,0.00,,,0.00,meteohub,2013-08-19 20:42:00,
2013-08-19 13:48:00,82.8,56.7,30.27,SSW,206,4.0,18.0,41,0.00,,,0.00,meteohub,2013-08-19 20:48:00,
2013-08-19 13:53:00,82.8,56.7,30.27,West,270,3.0,16.0,41,0.00,,,0.00,meteohub,2013-08-19 20:53:00,
2013-08-19 13:58:00,83.1,57.0,30.27,SSW,209,3.0,16.0,41,0.00,,,0.00,meteohub,2013-08-19 20:58:00,
2013-08-19 14:04:00,83.3,56.5,30.27,SW,232,5.0,17.0,40,0.00,,,0.00,meteohub,2013-08-19 21:04:00,
2013-08-19 14:09:00,82.9,56.1,30.26,SW,236,14.0,17.0,40,0.00,,,0.00,meteohub,2013-08-19 21:09:00,
2013-08-19 14:15:00,82.9,56.8,30.26,SW,214,5.0,17.0,41,0.00,,,0.00,meteohub,2013-08-19 21:15:00,
2013-08-19 14:20:00,83.5,57.4,30.26,SW,225,7.0,17.0,41,0.00,,,0.00,meteohub,2013-08-19 21:20:00,
2013-08-19 14:25:00,84.0,56.5,30.26,WSW,248,11.0,17.0,39,0.00,,,0.00,meteohub,2013-08-19 21:25:00,
2013-08-19 14:30:00,84.4,56.7,30.26,WNW,288,5.0,18.0,39,0.00,,,0.00,meteohub,2013-08-19 21:30:00,
2013-08-19 14:36:00,84.0,56.5,30.26,SW,217,4.0,18.0,39,0.00,,,0.00,meteohub,2013-08-19 21:36:00,
2013-08-19 14:41:00,83.8,56.3,30.26,WSW,248,12.0,18.0,39,0.00,,,0.00,meteohub,2013-08-19 21:41:00,
2013-08-19 14:46:00,84.0,56.5,30.25,NW,324,6.0,17.0,39,0.00,,,0.00,meteohub,2013-08-19 21:46:00,
2013-08-19 14:51:00,84.0,56.5,30.25,WSW,248,7.0,18.0,39,0.00,,,0.00,meteohub,2013-08-19 21:51:00,
2013-08-19 14:56:00,84.0,56.5,30.25,WSW,248,17.0,18.0,39,0.00,,,0.00,meteohub,2013-08-19 21:56:00,
2013-08-19 15:02:00,83.8,56.3,30.25,SW,226,5.0,18.0,39,0.00,,,0.00,meteohub,2013-08-19 22:02:00,
2013-08-19 15:07:00,83.8,56.3,30.25,WNW,283,4.0,18.0,39,0.00,,,0.00,meteohub,2013-08-19 22:07:00,
2013-08-19 15:12:00,83.8,55.6,30.25,WSW,238,13.0,18.0,38,0.00,,,0.00,meteohub,2013-08-19 22:12:00,
2013-08-19 15:17:00,83.5,55.2,30.25,WSW,241,8.0,20.0,38,0.00,,,0.00,meteohub,2013-08-19 22:17:00,
2013-08-19 15:22:00,83.1,55.6,30.25,WSW,252,13.0,20.0,39,0.00,,,0.00,meteohub,2013-08-19 22:22:00,
2013-08-19 15:27:00,83.1,55.6,30.25,WSW,248,9.0,20.0,39,0.00,,,0.00,meteohub,2013-08-19 22:27:00,
2013-08-19 15:33:00,83.1,54.9,30.25,NW,311,3.0,19.0,38,0.00,,,0.00,meteohub,2013-08-19 22:33:00,
2013-08-19 15:38:00,83.3,55.0,30.24,SE,146,4.0,18.0,38,0.00,,,0.00,meteohub,2013-08-19 22:38:00,
2013-08-19 15:43:00,83.3,54.3,30.24,West,270,8.0,19.0,37,0.00,,,0.00,meteohub,2013-08-19 22:43:00,
2013-08-19 15:48:00,83.5,54.5,30.24,West,271,9.0,19.0,37,0.00,,,0.00,meteohub,2013-08-19 22:48:00,
2013-08-19 15:53:00,83.5,54.5,30.24,WNW,286,11.0,18.0,37,0.00,,,0.00,meteohub,2013-08-19 22:53:00,
2013-08-19 15:58:00,83.5,54.5,30.24,SW,219,8.0,18.0,37,0.00,,,0.00,meteohub,2013-08-19 22:58:00,
2013-08-19 16:03:00,83.7,54.7,30.24,WSW,245,6.0,17.0,37,0.00,,,0.00,meteohub,2013-08-19 23:03:00,
2013-08-19 16:09:00,83.7,54.7,30.24,East,96,3.0,17.0,37,0.00,,,0.00,meteohub,2013-08-19 23:09:00,
2013-08-19 16:14:00,83.8,54.9,30.24,West,260,4.0,17.0,37,0.00,,,0.00,meteohub,2013-08-19 23:14:00,
2013-08-19 16:19:00,83.8,54.0,30.24,WSW,250,13.0,14.0,36,0.00,,,0.00,meteohub,2013-08-19 23:19:00,
2013-08-19 16:24:00,83.5,54.5,30.24,West,279,7.0,15.0,37,0.00,,,0.00,meteohub,2013-08-19 23:24:00,
2013-08-19 16:30:00,83.3,54.3,30.24,SW,233,4.0,17.0,37,0.00,,,0.00,meteohub,2013-08-19 23:30:00,
2013-08-19 16:35:00,83.1,54.1,30.24,SW,217,4.0,17.0,37,0.00,,,0.00,meteohub,2013-08-19 23:35:00,
2013-08-19 16:40:00,83.5,53.8,30.24,WSW,241,7.0,18.0,36,0.00,,,0.00,meteohub,2013-08-19 23:40:00,
2013-08-19 16:45:00,83.3,53.6,30.24,SW,219,3.0,18.0,36,0.00,,,0.00,meteohub,2013-08-19 23:45:00,
2013-08-19 16:50:00,83.5,53.8,30.24,West,280,9.0,17.0,36,0.00,,,0.00,meteohub,2013-08-19 23:50:00,
2013-08-19 16:56:00,83.1,54.1,30.24,West,265,8.0,15.0,37,0.00,,,0.00,meteohub,2013-08-19 23:56:00,
2013-08-19 17:01:00,82.9,54.0,30.23,SW,230,7.0,14.0,37,0.00,,,0.00,meteohub,2013-08-20 00:01:00,
2013-08-19 17:06:00,82.9,54.7,30.23,WSW,238,4.0,14.0,38,0.00,,,0.00,meteohub,2013-08-20 00:06:00,
2013-08-19 17:11:00,82.9,54.0,30.23,SW,219,6.0,16.0,37,0.00,,,0.00,meteohub,2013-08-20 00:11:00,
2013-08-19 17:16:00,82.9,54.7,30.23,West,279,3.0,16.0,38,0.00,,,0.00,meteohub,2013-08-20 00:16:00,
2013-08-19 17:22:00,82.8,54.5,30.23,WSW,253,4.0,16.0,38,0.00,,,0.00,meteohub,2013-08-20 00:22:00,
2013-08-19 17:27:00,82.4,54.3,30.23,WSW,241,12.0,20.0,38,0.00,,,0.00,meteohub,2013-08-20 00:27:00,
2013-08-19 17:32:00,82.4,55.0,30.23,NW,315,2.0,20.0,39,0.00,,,0.00,meteohub,2013-08-20 00:32:00,
2013-08-19 17:37:00,82.8,55.2,30.22,West,263,7.0,20.0,39,0.00,,,0.00,meteohub,2013-08-20 00:37:00,
2013-08-19 17:42:00,82.6,55.0,30.22,SW,233,5.0,15.0,39,0.00,,,0.00,meteohub,2013-08-20 00:42:00,
2013-08-19 17:48:00,82.6,55.0,30.22,WSW,246,5.0,13.0,39,0.00,,,0.00,meteohub,2013-08-20 00:48:00,
2013-08-19 17:53:00,82.6,55.0,30.23,WSW,254,5.0,14.0,39,0.00,,,0.00,meteohub,2013-08-20 00:53:00,
2013-08-19 17:58:00,82.2,54.9,30.23,SW,217,2.0,14.0,39,0.00,,,0.00,meteohub,2013-08-20 00:58:00,
2013-08-19 18:03:00,82.0,55.4,30.23,WSW,238,4.0,14.0,40,0.00,,,0.00,meteohub,2013-08-20 01:03:00,
2013-08-19 18:09:00,81.9,55.2,30.23,WNW,284,3.0,13.0,40,0.00,,,0.00,meteohub,2013-08-20 01:09:00,
2013-08-19 18:14:00,81.9,54.5,30.23,WSW,248,8.0,13.0,39,0.00,,,0.00,meteohub,2013-08-20 01:14:00,
2013-08-19 18:19:00,81.7,54.3,30.23,SW,214,5.0,13.0,39,0.00,,,0.00,meteohub,2013-08-20 01:19:00,
2013-08-19 18:24:00,81.5,54.1,30.23,SW,225,9.0,13.0,39,0.00,,,0.00,meteohub,2013-08-20 01:24:00,
2013-08-19 18:30:00,81.3,54.0,30.23,SW,217,7.0,13.0,39,0.00,,,0.00,meteohub,2013-08-20 01:30:00,
2013-08-19 18:35:00,81.1,53.8,30.22,WSW,245,3.0,12.0,39,0.00,,,0.00,meteohub,2013-08-20 01:35:00,
2013-08-19 18:40:00,81.0,53.6,30.22,SSW,202,7.0,12.0,39,0.00,,,0.00,meteohub,2013-08-20 01:40:00,
2013-08-19 18:45:00,80.8,53.6,30.22,SW,236,9.0,14.0,39,0.00,,,0.00,meteohub,2013-08-20 01:45:00,
2013-08-19 18:50:00,80.4,52.5,30.22,SW,233,4.0,16.0,38,0.00,,,0.00,meteohub,2013-08-20 01:50:00,
2013-08-19 18:56:00,80.1,52.2,30.22,WNW,295,7.0,17.0,38,0.00,,,0.00,meteohub,2013-08-20 01:56:00,
2013-08-19 19:01:00,79.7,52.5,30.22,WSW,250,8.0,19.0,39,0.00,,,0.00,meteohub,2013-08-20 02:01:00,
2013-08-19 19:06:00,79.3,51.4,30.22,SW,225,11.0,19.0,38,0.00,,,0.00,meteohub,2013-08-20 02:06:00,
2013-08-19 19:11:00,79.0,51.3,30.22,West,265,10.0,19.0,38,0.00,,,0.00,meteohub,2013-08-20 02:11:00,
2013-08-19 19:17:00,78.6,51.6,30.22,WSW,256,8.0,15.0,39,0.00,,,0.00,meteohub,2013-08-20 02:17:00,
2013-08-19 19:22:00,78.4,51.4,30.22,WSW,241,10.0,16.0,39,0.00,,,0.00,meteohub,2013-08-20 02:22:00,
2013-08-19 19:27:00,78.3,51.3,30.22,WSW,254,12.0,16.0,39,0.00,,,0.00,meteohub,2013-08-20 02:27:00,
2013-08-19 19:32:00,77.9,51.6,30.22,WSW,239,10.0,18.0,40,0.00,,,0.00,meteohub,2013-08-20 02:32:00,
2013-08-19 19:37:00,77.7,52.2,30.22,SW,222,15.0,19.0,41,0.00,,,0.00,meteohub,2013-08-20 02:37:00,
2013-08-19 19:42:00,77.4,52.5,30.22,WSW,245,4.0,19.0,42,0.00,,,0.00,meteohub,2013-08-20 02:42:00,
2013-08-19 19:47:00,77.2,52.9,30.22,West,275,4.0,19.0,43,0.00,,,0.00,meteohub,2013-08-20 02:47:00,
2013-08-19 19:52:00,76.8,52.7,30.22,WSW,256,9.0,20.0,43,0.00,,,0.00,meteohub,2013-08-20 02:52:00,
2013-08-19 19:57:00,76.6,53.1,30.22,WNW,282,12.0,20.0,44,0.00,,,0.00,meteohub,2013-08-20 02:57:00,
2013-08-19 20:03:00,76.5,53.6,30.22,West,263,3.0,20.0,45,0.00,,,0.00,meteohub,2013-08-20 03:03:00,
2013-08-19 20:08:00,76.3,53.4,30.22,NNE,32,3.0,19.0,45,0.00,,,0.00,meteohub,2013-08-20 03:08:00,
2013-08-19 20:13:00,75.9,53.6,30.23,South,178,7.0,19.0,46,0.00,,,0.00,meteohub,2013-08-20 03:13:00,
2013-08-19 20:18:00,75.9,53.6,30.23,WSW,250,10.0,19.0,46,0.00,,,0.00,meteohub,2013-08-20 03:18:00,
2013-08-19 20:23:00,75.6,54.0,30.23,ESE,105,3.0,16.0,47,0.00,,,0.00,meteohub,2013-08-20 03:23:00,
2013-08-19 20:29:00,75.4,53.2,30.24,SSE,162,9.0,10.0,46,0.00,,,0.00,meteohub,2013-08-20 03:29:00,
2013-08-19 20:34:00,75.0,52.9,30.24,SE,128,3.0,11.0,46,0.00,,,0.00,meteohub,2013-08-20 03:34:00,
2013-08-19 20:39:00,74.8,52.7,30.25,East,96,1.0,11.0,46,0.00,,,0.00,meteohub,2013-08-20 03:39:00,
2013-08-19 20:44:00,74.7,52.5,30.25,SE,136,1.0,11.0,46,0.00,,,0.00,meteohub,2013-08-20 03:44:00,
2013-08-19 20:49:00,74.5,51.8,30.25,SSE,161,0.0,13.0,45,0.00,,,0.00,meteohub,2013-08-20 03:49:00,
2013-08-19 20:54:00,74.3,52.7,30.25,SE,133,0.0,13.0,47,0.00,,,0.00,meteohub,2013-08-20 03:54:00,
2013-08-19 21:00:00,73.9,51.8,30.25,NE,44,0.0,13.0,46,0.00,,,0.00,meteohub,2013-08-20 04:00:00,
2013-08-19 21:01:00,73.9,52.5,30.25,ENE,78,0.0,6.0,47,0.00,,,0.00,meteohub,2013-08-20 04:01:00,
2013-08-19 21:02:00,73.9,52.5,30.25,East,93,3.0,6.0,47,0.00,,,0.00,meteohub,2013-08-20 04:02:00,
2013-08-19 21:03:00,73.9,52.5,30.25,East,101,2.0,6.0,47,0.00,,,0.00,meteohub,2013-08-20 04:03:00,
2013-08-19 21:05:00,73.8,52.3,30.25,SSE,156,2.0,6.0,47,0.00,,,0.00,meteohub,2013-08-20 04:05:00,
2013-08-19 21:07:00,73.8,52.3,30.26,WSW,246,1.0,6.0,47,0.00,,,0.00,meteohub,2013-08-20 04:07:00,
2013-08-19 21:12:00,73.4,53.6,30.26,SSW,200,0.0,10.0,50,0.00,,,0.00,meteohub,2013-08-20 04:12:00,
2013-08-19 21:17:00,73.0,53.8,30.26,SSE,157,1.0,10.0,51,0.00,,,0.00,meteohub,2013-08-20 04:17:00,
2013-08-19 21:22:00,72.7,53.4,30.26,SSW,207,3.0,10.0,51,0.00,,,0.00,meteohub,2013-08-20 04:22:00,
2013-08-19 21:27:00,72.5,54.3,30.27,SSW,200,5.0,8.0,53,0.00,,,0.00,meteohub,2013-08-20 04:27:00,
2013-08-19 21:32:00,72.5,54.9,30.27,SSW,205,5.0,8.0,54,0.00,,,0.00,meteohub,2013-08-20 04:32:00,
2013-08-19 21:37:00,72.3,54.7,30.27,West,272,1.0,8.0,54,0.00,,,0.00,meteohub,2013-08-20 04:37:00,
2013-08-19 21:43:00,72.1,55.0,30.27,WSW,252,2.0,8.0,55,0.00,,,0.00,meteohub,2013-08-20 04:43:00,
2013-08-19 21:48:00,72.0,55.4,30.27,SSW,193,2.0,8.0,56,0.00,,,0.00,meteohub,2013-08-20 04:48:00,
2013-08-19 21:53:00,71.8,55.8,30.26,WSW,248,3.0,5.0,57,0.00,,,0.00,meteohub,2013-08-20 04:53:00,
2013-08-19 21:58:00,71.6,56.1,30.27,West,272,5.0,8.0,58,0.00,,,0.00,meteohub,2013-08-20 04:58:00,
2013-08-19 22:03:00,71.4,55.9,30.27,West,281,6.0,12.0,58,0.00,,,0.00,meteohub,2013-08-20 05:03:00,
2013-08-19 22:08:00,71.4,55.9,30.27,WSW,245,4.0,12.0,58,0.00,,,0.00,meteohub,2013-08-20 05:08:00,
2013-08-19 22:14:00,71.2,55.2,30.27,SW,214,5.0,12.0,57,0.00,,,0.00,meteohub,2013-08-20 05:14:00,
2013-08-19 22:19:00,71.1,55.0,30.27,SW,225,6.0,12.0,57,0.00,,,0.00,meteohub,2013-08-20 05:19:00,
2013-08-19 22:24:00,70.9,54.9,30.27,SW,226,6.0,14.0,57,0.00,,,0.00,meteohub,2013-08-20 05:24:00,
2013-08-19 22:29:00,70.7,54.7,30.27,West,272,3.0,14.0,57,0.00,,,0.00,meteohub,2013-08-20 05:29:00,
2013-08-19 22:34:00,70.3,54.3,30.27,WSW,240,10.0,16.0,57,0.00,,,0.00,meteohub,2013-08-20 05:34:00,
2013-08-19 22:39:00,70.2,53.8,30.27,SW,216,10.0,17.0,56,0.00,,,0.00,meteohub,2013-08-20 05:39:00,
2013-08-19 22:44:00,69.8,53.4,30.27,WSW,245,10.0,17.0,56,0.00,,,0.00,meteohub,2013-08-20 05:44:00,
2013-08-19 22:50:00,69.4,53.6,30.27,WNW,300,3.0,17.0,57,0.00,,,0.00,meteohub,2013-08-20 05:50:00,
2013-08-19 22:55:00,69.3,53.4,30.27,WNW,296,9.0,16.0,57,0.00,,,0.00,meteohub,2013-08-20 05:55:00,
2013-08-19 23:00:00,68.9,53.6,30.27,West,260,9.0,14.0,58,0.00,,,0.00,meteohub,2013-08-20 06:00:00,
2013-08-19 23:06:00,68.7,53.4,30.27,SSW,209,5.0,12.0,58,0.00,,,0.00,meteohub,2013-08-20 06:06:00,
2013-08-19 23:11:00,68.5,53.6,30.27,WSW,238,12.0,13.0,59,0.00,,,0.00,meteohub,2013-08-20 06:11:00,
2013-08-19 23:16:00,68.4,54.0,30.27,WSW,242,10.0,18.0,60,0.00,,,0.00,meteohub,2013-08-20 06:16:00,
2013-08-19 23:21:00,68.0,54.0,30.27,South,182,3.0,18.0,61,0.00,,,0.00,meteohub,2013-08-20 06:21:00,
2013-08-19 23:26:00,67.8,54.3,30.27,SW,222,2.0,18.0,62,0.00,,,0.00,meteohub,2013-08-20 06:26:00,
2013-08-19 23:31:00,67.6,54.7,30.27,South,184,7.0,14.0,63,0.00,,,0.00,meteohub,2013-08-20 06:31:00,
2013-08-19 23:37:00,67.5,54.9,30.28,WSW,240,7.0,15.0,64,0.00,,,0.00,meteohub,2013-08-20 06:37:00,
2013-08-19 23:42:00,67.1,54.9,30.28,SW,217,5.0,15.0,65,0.00,,,0.00,meteohub,2013-08-20 06:42:00,
2013-08-19 23:47:00,66.9,55.2,30.28,SSW,210,7.0,12.0,66,0.00,,,0.00,meteohub,2013-08-20 06:47:00,
2013-08-19 23:52:00,66.7,55.4,30.28,SSW,211,4.0,14.0,67,0.00,,,0.00,meteohub,2013-08-20 06:52:00,
2013-08-19 23:57:00,66.7,55.4,30.28,WSW,242,5.0,14.0,67,0.00,,,0.00,meteohub,2013-08-20 06:57:00,